CZ-6A DEB, 61101

Orbit data source: Space-Track

CZ-6A DEB, 61101 is space debris in LEO originally from a launch on Tue, 06 Aug 2024 UTC launched from the Taiyaun Space Center, China (TSC). Debris objects in space refer to the collection of defunct objects orbiting the Earth. Examples of debris include non-operational satellites, rocket bodies, and fragments generated from explosions, collisions, or faulty payload assembly.

Loading next visibility...
Identifier
61101, 2024-140NT
Orbit
LEO
Country
Flag of CNCN / PRC
Related business
Manufacturer
SAST
Mission
Spacecraft
Bus & Motor
Unknown
Mass
Unknown
Launch date (UTC)
2024-08-06 (2 years ago)
Launch vehicle
Unknown
Launch site
Taiyaun Space Center, China (TSC)
Object type
Payload
Rocket body
Debris
Shape & HBR
Unknown shape, 0.1 m
Radar Cross Section
Medium (>0.1 m² and <1 m²)

Expand to show TLE details & history
Last TLE update: 13 hours ago

TLE from 13 hours ago
0 CZ-6A DEB
1 61101U 24140NT  26171.30972608  .00000225  00000-0  10252-3 0  9994
2 61101  89.0147 275.7046 0054725 196.9690 162.9671 14.17577268 93657
Epoch: 2026-06-20T07:26Z
TLE epoch observation values (Epoch: 2026-06-20T07:26:00.333Z)
Latitude
0.00002°
Longitude
-104.32298°
Altitude
874.369 km
Speed
7.396 km/s
True Right ascension
18h 22m 49s
True Declination
0° 00' 00"
Sunlit
Object was in full shadow at epoch
Visualization orbit readout
Latitude
Unknown
Longitude
Unknown
Altitude
Unknown
Speed
Unknown
Apparent Right ascension
Unknown
Apparent Declination
Unknown
Sunlit
N/A
Visualization observer readout
Local Sidereal Time
07:24:30
Azimuth
Unknown
Elevation
Unknown
Doppler factor
Unknown
Orbital elements
Apogee altitude
869.962 km
Perigee altitude
791.063 km
Semi-major axis
7,208.649 km
Eccentricity
0.00547
Inclination
89.0147°
RAAN
275.7046°
Arg. of periapsis
196.969°
True anomaly
163.1496°
Mean anomaly
162.9671°
Eccentric anomaly
163.05847°
Mean motion
3.54619 °/min
Orbital period
101.52 mins
BSTAR
0.00010252
Loading maneuver chart data...
Computing Atmospheric mass density...
Loading historical data...
Loading historical data...
Loading historical data...
Loading historical data...
Loading historical data...
Loading historical data...
Loading historical data...

Documentation

Showing up to 5 results
|